ROMMA est une association bénévole à but non lucratif. Votre soutien est indispensable : ADHERER à ROMMA ou FAIRE un DON

Crêts du Salève - (74, Haute-Savoie)

Salève (1270 m)   Longitude: 6° 10' 28'' E   Latitude: 46° 7' 42'' N Station romma n°73
 

Détail journalier du     <<     >>

Température Precipitation Humidité Vent Dir Rafale Dir. rafale Ensol.
Heure (°C) (mm) (%) (km/h) (km/h) (min)
01:00 12.907334S55S0
02:00 13.706831S52SSE0
03:00 12.707426SSO42S0
04:00 11.907924SSO35SSO0
05:00 11.607927SSO35SSO0
06:00 12.807020SSO39SSE0
07:00 12.207125S42SSE0
08:00 11.607318SSE35SSE0
09:00 11.607214SSE37SSE0
10:00 12.806520SSE39S20
11:00 14.106026S47S60
12:00 14.905928S56SSE50
13:00 14.906121S47SSE60
14:00 14.406330SSO48SSO40
15:00 16.305429SSO48SSO30
16:00 16.605522SSO35SSO40
17:00 16.805226SSO47SSO10
18:00 17.005130S48S0
19:00 16.905032SSO61SO0
20:00 15.905732SSO56SSO0
21:00 14.406335S61S0
22:00 13.107435S68S0
23:00 11.80.88338S68SSE0
minuit 12.30.87935S55S0

Graphique du 20-10-2019

 

Serveur OMMA